Flag for Canada Weather past 2 weeks in Riverview, New Brunswick, Canada

Now
46 °F

Passing clouds.


Feels Like: 45 °F
Forecast: 45 / 61 °F
Wind: 3 mph from North

Location: Moncton

Current Time: Oct 2, 2014 at 10:04:08 AM

Latest Report: Oct 2, 2014 at 9:00 AM


Visibility: 15 mi

Pressure: 30.28 "Hg

Humidity: 93%

Dew point: 45 °F

Location of RiverviewLocation

Historic Weather in Riverview — Graph

°F

Riverview temperature yesterday

Maximum temperature yesterday: 54 °F (at 12:00 PM)
Minimum temperature yesterday: 37 °F (at 11:00 PM)
Average temperature yesterday: 50 °F

Past Weeks' High & Low Weather Summary

 TemperatureHumidityPressure
High82 °F (Sep 28, 3:00 PM)100% (Sep 22, 12:00 AM)30.63 "Hg (Sep 22, 12:00 AM)
Low34 °F (Sep 19, 8:00 AM)26% (Sep 19, 4:00 PM)29.34 "Hg (Sep 22, 6:00 AM)
Average55 °F75%30.07 "Hg
* Reported Sep 17 8:00 AM — Oct 2 8:00 AM, Riverview, Weather by CustomWeather, © 2014

Note: Actual official high and low records may vary slightly from our data, if they occured in-between our weather recording intervals... More about our weather records

Advertising

Riverview weather history for previous 24 hours

 ConditionsComfort  
Time TempWeatherWind HumidityBarometerVisibility
8:00 AM
Oct 2
39 °FPassing clouds.5 mph93%30.26 "Hg15 mi
7:00 AM41 °FPassing clouds.5 mph93%30.24 "Hg15 mi
6:00 AM41 °FClear.7 mph100%30.22 "Hg15 mi
5:00 AM39 °FClear.6 mph100%30.22 "Hg12 mi
4:00 AM37 °FClear.6 mph93%30.22 "Hg12 mi
3:00 AM39 °FFog.6 mph93%30.22 "Hg10 mi
2:00 AM39 °FClear.5 mph93%30.24 "Hg8 mi
1:00 AM37 °FClear.7 mph93%30.23 "Hg7 mi
12:00 AM39 °FPassing clouds.5 mph93%30.25 "Hg15 mi
11:00 PM
Oct 1
37 °FClear.5 mph93%30.24 "Hg15 mi
10:00 PM43 °FPassing clouds.3 mph93%30.25 "Hg15 mi
9:00 PM41 °FPassing clouds.5 mph93%30.25 "Hg15 mi
8:00 PM46 °FPassing clouds.3 mph87%30.24 "Hg15 mi
7:00 PM50 °FPartly sunny.9 mph82%30.21 "Hg15 mi
6:00 PM52 °FOvercast.9 mph77%30.20 "Hg15 mi
5:00 PM52 °FOvercast.12 mph77%30.19 "Hg15 mi
4:00 PM52 °FLow clouds.12 mph82%30.18 "Hg15 mi
3:00 PM52 °FMostly cloudy.13 mph88%30.18 "Hg12 mi
2:00 PM54 °FOvercast.10 mph82%30.19 "Hg15 mi
1:00 PM54 °FMostly cloudy.13 mph82%30.19 "Hg15 mi
12:00 PM54 °FMostly cloudy.10 mph82%30.19 "Hg15 mi
11:00 AM52 °FMostly cloudy.12 mph88%30.19 "Hg15 mi
10:00 AM52 °FMostly cloudy.9 mph94%30.19 "Hg8 mi
Weather by CustomWeather, © 2014

See weather overviewHow to use our weather pages